Location: Branche des Alpilles
(43.6087°N, 4.6976°E)
Time: 17:17:16
(UTC+00:00)

Cosmos 2341 Rocket - Pass Details

Date: 30 November 2020
Orbit: 969 x 1003 km, 82.9° (Epoch: 23 January)

Event Time Altitude Azimuth Distance (km) Brightness Sun altitude
Rises 16:47:05 0° 353° (N) 3,699 6.9 -7.5°
Reaches altitude 10° 16:49:37 10° 355° (N) 2,751 6.2 -7.9°
Maximum altitude 16:55:56 78° 81° (E) 1,017 4.0 -9.0°
Drops below altitude 10° 17:02:17 10° 168° (SSE) 2,756 6.5 -10.1°
Sets 17:04:48 0° 170° (S) 3,705 7.2 -10.5°
